Location: DaVinci Observatory
(43.1080°N, 78.6453°W)
Time: 01:59:49
(UTC-04:00)

OTV 5 (USA 277) - Pass Details

Date: 09 October 2017
Orbit: 404 x 417 km, 43.0° (Epoch: 07 September)

Event Time Altitude Azimuth Distance (km) Brightness Sun altitude
Rises 20:33:23 0° 235° (SW) 2,346 ? -21.2°
Reaches altitude 10° 20:35:34 10° 227° (SW) 1,485 ? -21.6°
Enters shadow 20:37:20 25° 207° (SSW) 874 ? -21.9°
